UAL4590 KSFO-KEWR

Flight info

Callsign UAL4590
Flight time N/A
Altitude 37000
Route SNTNA2 MOGEE Q122 LCU J94 ONL FOD DBQ J94 COTON/N0489F390 J94 OBK J584 SLT FQM3
Aircraft B77W/H-SDE1E2E3FGHIJ2J3J4J5M1RWXY/LB1D1

Departure

Time 2026-05-07 15:30
Airport San Francisco International Airport (KSFO)

Arrival

Time N/A
Airport Newark Liberty International Airport (KEWR)
Time Latitude Longitude Altitude Speed Heading
2026-05-07 14:50 37.62165 -122.38992 25 ft 0 kts 206°
2026-05-07 15:16 37.62170 -122.38989 31 ft 2 kts 204°
2026-05-07 15:17 37.62190 -122.38977 30 ft 2 kts 206°
2026-05-07 15:17 37.62204 -122.38969 31 ft 2 kts 205°
2026-05-07 15:17 37.62219 -122.38960 31 ft 2 kts 204°
2026-05-07 15:17 37.62234 -122.38952 31 ft 2 kts 202°
2026-05-07 15:18 37.62249 -122.38946 30 ft 2 kts 169°
2026-05-07 15:18 37.62265 -122.38951 31 ft 2 kts 158°
2026-05-07 15:18 37.62275 -122.38957 29 ft 2 kts 149°
2026-05-07 15:18 37.62288 -122.38968 31 ft 1 kts 132°
2026-05-07 15:19 37.62290 -122.38971 31 ft 0 kts 126°
2026-05-07 15:22 37.62273 -122.38936 31 ft 11 kts 120°
2026-05-07 15:22 37.62236 -122.38848 31 ft 12 kts 117°
2026-05-07 15:22 37.62200 -122.38759 27 ft 12 kts 117°
2026-05-07 15:22 37.62163 -122.38669 27 ft 12 kts 117°
2026-05-07 15:23 37.62126 -122.38579 31 ft 12 kts 117°
2026-05-07 15:23 37.62089 -122.38489 29 ft 12 kts 117°
2026-05-07 15:23 37.62052 -122.38399 31 ft 12 kts 117°
2026-05-07 15:23 37.62015 -122.38309 29 ft 12 kts 117°
2026-05-07 15:24 37.61977 -122.38219 29 ft 12 kts 117°
2026-05-07 15:24 37.61936 -122.38120 30 ft 13 kts 117°
2026-05-07 15:24 37.61895 -122.38019 30 ft 13 kts 117°
2026-05-07 15:24 37.61854 -122.37919 28 ft 13 kts 117°
2026-05-07 15:25 37.61815 -122.37815 28 ft 13 kts 115°
2026-05-07 15:25 37.61778 -122.37712 29 ft 13 kts 115°
2026-05-07 15:25 37.61744 -122.37601 29 ft 16 kts 111°
2026-05-07 15:25 37.61699 -122.37462 29 ft 17 kts 115°
2026-05-07 15:26 37.61646 -122.37326 28 ft 17 kts 116°
2026-05-07 15:26 37.61591 -122.37191 31 ft 17 kts 117°
2026-05-07 15:26 37.61536 -122.37058 31 ft 17 kts 118°
2026-05-07 15:26 37.61471 -122.36932 29 ft 17 kts 127°
2026-05-07 15:27 37.61394 -122.36815 31 ft 17 kts 130°
2026-05-07 15:27 37.61326 -122.36691 29 ft 17 kts 118°
2026-05-07 15:27 37.61269 -122.36559 28 ft 17 kts 118°
2026-05-07 15:27 37.61213 -122.36424 29 ft 17 kts 116°
2026-05-07 15:28 37.61160 -122.36288 30 ft 17 kts 116°
2026-05-07 15:28 37.61106 -122.36153 30 ft 17 kts 116°
2026-05-07 15:28 37.61061 -122.36014 28 ft 17 kts 98°
2026-05-07 15:28 37.61112 -122.35895 29 ft 15 kts 33°
2026-05-07 15:29 37.61187 -122.35890 28 ft 6 kts 334°
2026-05-07 15:29 37.61204 -122.35915 27 ft 0 kts 297°
2026-05-07 15:29 37.61224 -122.35963 30 ft 21 kts 298°
2026-05-07 15:29 37.61419 -122.36441 29 ft 101 kts 298°
2026-05-07 15:30 37.61855 -122.37492 27 ft 166 kts 301°
2026-05-07 15:30 37.62439 -122.38857 429 ft 184 kts 297°
2026-05-07 15:30 37.63046 -122.40341 1138 ft 194 kts 296°
2026-05-07 15:30 37.63626 -122.41804 2136 ft 181 kts 298°
2026-05-07 15:31 37.64234 -122.43184 2799 ft 186 kts 300°
2026-05-07 15:31 37.64908 -122.44697 3021 ft 214 kts 300°
2026-05-07 15:31 37.65687 -122.46466 3267 ft 241 kts 299°
2026-05-07 15:31 37.66509 -122.48345 3951 ft 250 kts 299°
2026-05-07 15:32 37.67369 -122.50301 4685 ft 257 kts 302°
2026-05-07 15:32 37.68640 -122.51907 5314 ft 267 kts 332°
2026-05-07 15:32 37.70442 -122.52518 6037 ft 274 kts 355°
2026-05-07 15:32 37.72374 -122.52581 6710 ft 282 kts 355°
2026-05-07 15:33 37.74316 -122.52637 7667 ft 279 kts 355°
2026-05-07 15:33 37.76237 -122.52700 8523 ft 281 kts 355°
2026-05-07 15:33 37.78201 -122.52726 9258 ft 284 kts
2026-05-07 15:33 37.80104 -122.51933 9849 ft 299 kts 32°
2026-05-07 15:34 37.81551 -122.49980 10353 ft 318 kts 59°
2026-05-07 15:34 37.82513 -122.47352 10543 ft 342 kts 66°
2026-05-07 15:34 37.83476 -122.44474 10754 ft 368 kts 66°
2026-05-07 15:34 37.84560 -122.41452 11029 ft 384 kts 62°
2026-05-07 15:35 37.85909 -122.38495 11795 ft 390 kts 58°
2026-05-07 15:35 37.87346 -122.35617 12740 ft 393 kts 57°
2026-05-07 15:35 37.88831 -122.32693 13670 ft 399 kts 57°
2026-05-07 15:35 37.90336 -122.29707 14516 ft 403 kts 57°
2026-05-07 15:36 37.91832 -122.26694 15341 ft 408 kts 57°
2026-05-07 15:36 37.93345 -122.23609 16153 ft 414 kts 58°
2026-05-07 15:36 37.94857 -122.20496 17084 ft 416 kts 57°
2026-05-07 15:36 37.96376 -122.17352 17948 ft 421 kts 57°
2026-05-07 15:37 37.97890 -122.14205 18706 ft 426 kts 58°
2026-05-07 15:37 37.99436 -122.10984 19465 ft 430 kts 57°
2026-05-07 15:37 38.00991 -122.07739 20278 ft 432 kts 58°
2026-05-07 15:37 38.02556 -122.04473 21057 ft 435 kts 58°
2026-05-07 15:38 38.04134 -122.01175 21803 ft 439 kts 58°
2026-05-07 15:38 38.05723 -121.97854 22510 ft 443 kts 58°
2026-05-07 15:38 38.07324 -121.94504 23227 ft 446 kts 58°
2026-05-07 15:38 38.08929 -121.91141 23901 ft 450 kts 58°
2026-05-07 15:39 38.10546 -121.87748 24430 ft 454 kts 58°
2026-05-07 15:39 38.12183 -121.84310 24998 ft 457 kts 58°
2026-05-07 15:39 38.13833 -121.80842 25552 ft 461 kts 58°
2026-05-07 15:39 38.15498 -121.77339 26099 ft 464 kts 58°
2026-05-07 15:40 38.17171 -121.73816 26616 ft 469 kts 58°
2026-05-07 15:40 38.18862 -121.70250 27112 ft 473 kts 58°
2026-05-07 15:40 38.20562 -121.66662 27636 ft 475 kts 58°
2026-05-07 15:40 38.22262 -121.63069 28106 ft 479 kts 58°
2026-05-07 15:41 38.23971 -121.59452 28549 ft 483 kts 58°
2026-05-07 15:41 38.25708 -121.55774 29054 ft 485 kts 58°
2026-05-07 15:41 38.27448 -121.52084 29467 ft 489 kts 58°
2026-05-07 15:41 38.29202 -121.48360 29823 ft 492 kts 58°
2026-05-07 15:42 38.30965 -121.44611 30288 ft 493 kts 58°
2026-05-07 15:42 38.32719 -121.40881 30854 ft 489 kts 58°
2026-05-07 15:42 38.34512 -121.37218 31346 ft 488 kts 55°
2026-05-07 15:42 38.36515 -121.33731 31799 ft 486 kts 51°
2026-05-07 15:43 38.38630 -121.30372 32233 ft 486 kts 50°
2026-05-07 15:43 38.40775 -121.27071 32684 ft 485 kts 50°
2026-05-07 15:43 38.42929 -121.23757 33136 ft 484 kts 50°
2026-05-07 15:43 38.45030 -121.20481 33583 ft 483 kts 50°
2026-05-07 15:44 38.47133 -121.17151 34028 ft 481 kts 51°
2026-05-07 15:44 38.49216 -121.13809 34410 ft 481 kts 51°
2026-05-07 15:44 38.51286 -121.10462 34767 ft 480 kts 51°
2026-05-07 15:44 38.53340 -121.07123 35119 ft 479 kts 51°
2026-05-07 15:45 38.57480 -121.00377 35134 ft 482 kts 51°
2026-05-07 15:45 38.61561 -120.93718 35162 ft 476 kts 51°
2026-05-07 15:46 38.67674 -120.83729 35206 ft 475 kts 51°
2026-05-07 15:47 38.71746 -120.77059 35214 ft 476 kts 51°
2026-05-07 15:47 38.75819 -120.70375 35207 ft 476 kts 51°
2026-05-07 15:48 38.79866 -120.63719 35196 ft 477 kts 51°
2026-05-07 15:48 38.83939 -120.57008 35180 ft 477 kts 51°
2026-05-07 15:49 38.88005 -120.50289 35166 ft 477 kts 51°
2026-05-07 15:49 38.92072 -120.43559 35151 ft 477 kts 51°
2026-05-07 15:50 38.96131 -120.36830 35191 ft 476 kts 51°
2026-05-07 15:50 39.00154 -120.30142 35214 ft 476 kts 51°
2026-05-07 15:51 39.04197 -120.23408 35228 ft 476 kts 51°
2026-05-07 15:51 39.08235 -120.16668 35237 ft 475 kts 51°
2026-05-07 15:52 39.12264 -120.09930 35245 ft 475 kts 51°
2026-05-07 15:52 39.16255 -120.03241 35257 ft 474 kts 51°
2026-05-07 15:53 39.20259 -119.96516 35251 ft 474 kts 51°
2026-05-07 15:53 39.24282 -119.89745 35614 ft 475 kts 51°
2026-05-07 15:53 39.26280 -119.86377 36057 ft 472 kts 51°
2026-05-07 15:54 39.28242 -119.83065 36485 ft 469 kts 51°
2026-05-07 15:54 39.30215 -119.79730 36864 ft 467 kts 51°
2026-05-07 15:54 39.32170 -119.76423 37135 ft 467 kts 51°
2026-05-07 15:55 39.36148 -119.69689 37183 ft 471 kts 51°
2026-05-07 15:55 39.40103 -119.62975 37175 ft 466 kts 51°
2026-05-07 15:56 39.44011 -119.56326 37174 ft 463 kts 51°
2026-05-07 15:56 39.47870 -119.49750 37148 ft 462 kts 51°
2026-05-07 15:57 39.51738 -119.43143 37129 ft 462 kts 51°
2026-05-07 15:57 39.55627 -119.36489 37092 ft 464 kts 51°
2026-05-07 15:58 39.59525 -119.29804 37066 ft 466 kts 51°
2026-05-07 15:58 39.63395 -119.23153 37064 ft 467 kts 51°
2026-05-07 15:59 39.67315 -119.16400 37057 ft 468 kts 51°
2026-05-07 15:59 39.71225 -119.09648 37060 ft 468 kts 51°
2026-05-07 16:00 39.75133 -119.02888 37062 ft 468 kts 51°
2026-05-07 16:00 39.78992 -118.96199 37059 ft 468 kts 51°
2026-05-07 16:01 39.82889 -118.89427 37070 ft 468 kts 51°
2026-05-07 16:01 39.86787 -118.82643 37095 ft 468 kts 51°
2026-05-07 16:02 39.90260 -118.75475 37122 ft 469 kts 59°
2026-05-07 16:02 39.93295 -118.67948 37142 ft 470 kts 60°
2026-05-07 16:03 39.96300 -118.60460 37160 ft 469 kts 59°
2026-05-07 16:03 39.99349 -118.52932 37169 ft 469 kts 59°
2026-05-07 16:04 40.02389 -118.45448 37147 ft 468 kts 59°
2026-05-07 16:04 40.05436 -118.37928 37146 ft 469 kts 59°
2026-05-07 16:05 40.08468 -118.30427 37140 ft 472 kts 59°
2026-05-07 16:05 40.11531 -118.22825 37112 ft 474 kts 59°
2026-05-07 16:06 40.14595 -118.15199 37081 ft 474 kts 59°
2026-05-07 16:06 40.17653 -118.07571 37053 ft 474 kts 59°
2026-05-07 16:07 40.20595 -117.99927 37060 ft 474 kts 64°
2026-05-07 16:07 40.23029 -117.91911 37062 ft 474 kts 65°
2026-05-07 16:08 40.25394 -117.83864 37069 ft 473 kts 65°
2026-05-07 16:08 40.27766 -117.75840 37071 ft 472 kts 65°
2026-05-07 16:09 40.30147 -117.67837 37072 ft 471 kts 65°
2026-05-07 16:09 40.32514 -117.59883 37072 ft 471 kts 65°
2026-05-07 16:10 40.34892 -117.51867 37054 ft 472 kts 65°
2026-05-07 16:10 40.37261 -117.43855 37055 ft 471 kts 65°
2026-05-07 16:11 40.39624 -117.35835 37056 ft 471 kts 65°
2026-05-07 16:11 40.41962 -117.27877 37054 ft 472 kts 65°
2026-05-07 16:12 40.44320 -117.19824 37092 ft 472 kts 65°
2026-05-07 16:12 40.46669 -117.11781 37117 ft 472 kts 65°
2026-05-07 16:13 40.49012 -117.03731 37151 ft 472 kts 65°
2026-05-07 16:13 40.51350 -116.95675 37176 ft 472 kts 65°
2026-05-07 16:14 40.53668 -116.87661 37192 ft 472 kts 65°
2026-05-07 16:14 40.55994 -116.79598 37191 ft 472 kts 65°
2026-05-07 16:15 40.58315 -116.71524 37182 ft 472 kts 65°
2026-05-07 16:15 40.60630 -116.63445 37154 ft 472 kts 65°
2026-05-07 16:16 40.62923 -116.55422 37128 ft 472 kts 65°
2026-05-07 16:16 40.65226 -116.47337 37103 ft 471 kts 65°
2026-05-07 16:17 40.67521 -116.39251 37071 ft 471 kts 65°
2026-05-07 16:17 40.69806 -116.31177 37071 ft 471 kts 65°
2026-05-07 16:18 40.72074 -116.23142 37084 ft 470 kts 65°
2026-05-07 16:18 40.74345 -116.15066 37113 ft 470 kts 65°
2026-05-07 16:19 40.76611 -116.06982 37134 ft 470 kts 65°
2026-05-07 16:19 40.78872 -115.98895 37155 ft 470 kts 65°
2026-05-07 16:20 40.81124 -115.90815 37178 ft 470 kts 65°
2026-05-07 16:20 40.83357 -115.82774 37181 ft 469 kts 65°
2026-05-07 16:21 40.85596 -115.74684 37179 ft 469 kts 65°
2026-05-07 16:21 40.87828 -115.66595 37174 ft 469 kts 65°
2026-05-07 16:22 40.90056 -115.58497 37153 ft 468 kts 65°
2026-05-07 16:22 40.92261 -115.50456 37123 ft 469 kts 65°
2026-05-07 16:23 40.94476 -115.42350 37104 ft 469 kts 65°
2026-05-07 16:23 40.96687 -115.34234 37074 ft 469 kts 65°
2026-05-07 16:24 40.98893 -115.26109 37087 ft 469 kts 65°
2026-05-07 16:24 41.01077 -115.18038 37081 ft 469 kts 65°
2026-05-07 16:25 41.03270 -115.09911 37083 ft 468 kts 65°
2026-05-07 16:25 41.05456 -115.01785 37082 ft 468 kts 65°
2026-05-07 16:26 41.07655 -114.93584 37068 ft 477 kts 65°
2026-05-07 16:26 41.09892 -114.85221 37071 ft 484 kts 65°
2026-05-07 16:27 41.12120 -114.76845 37062 ft 485 kts 65°
2026-05-07 16:27 41.14357 -114.68403 37066 ft 484 kts 65°
2026-05-07 16:28 41.16584 -114.59975 37058 ft 484 kts 65°
2026-05-07 16:28 41.18804 -114.51550 37053 ft 483 kts 65°
2026-05-07 16:29 41.20998 -114.43193 37046 ft 482 kts 65°
2026-05-07 16:29 41.23198 -114.34785 37051 ft 482 kts 65°
2026-05-07 16:30 41.25392 -114.26374 37038 ft 481 kts 65°
2026-05-07 16:30 41.27576 -114.17971 37045 ft 481 kts 65°
2026-05-07 16:31 41.29740 -114.09616 37042 ft 481 kts 65°
2026-05-07 16:31 41.31914 -114.01189 37048 ft 482 kts 65°
2026-05-07 16:32 41.34087 -113.92745 37044 ft 483 kts 65°
2026-05-07 16:32 41.36083 -113.84191 37038 ft 488 kts 71°
2026-05-07 16:33 41.37025 -113.75172 37046 ft 495 kts 79°
2026-05-07 16:33 41.37575 -113.66100 37029 ft 495 kts 80°
2026-05-07 16:34 41.38126 -113.56953 37025 ft 495 kts 79°
2026-05-07 16:34 41.38705 -113.47814 37020 ft 495 kts 79°
2026-05-07 16:35 41.39296 -113.38676 37014 ft 495 kts 79°
2026-05-07 16:35 41.39882 -113.29539 37011 ft 495 kts 79°
2026-05-07 16:36 41.40456 -113.20459 37012 ft 495 kts 79°